Radiosonde details



Informationen :

Serial : D26002526
Type : Graw DFM
Frequency : 403.210MHz
Launchsite : Spokane
Nearest town : Newport, US (6.6km)

Altitude (Max) : 31749m at 2026-09-03 18:50:49
Speed (Max) : 152km/h at altitude 9224m

Average speed : 52km/h
Average ascent rate : 5m/s
Average descent rate : -17m/s
Ascent rate (Max) : 12.0m/s
Descent rate (Max): -47.1m/s

First frame :
WB7NNF at 2026-09-03 17:24:14 at altitude 3613m (OG: 3571m)
Last frame :
WB7NNF at 2026-09-03 19:11:23 at altitude 9795m (OG: 9753m)

Flighttime : 1h47m9s
Ascent time : 1h26m35s
Descent time : 20m34s
Uptime : -
Killtimer : -

Distance (Straight line distance): 71km

Distance (Route):


Frames : 285


Measurement :

Temperature : -45.4°C
Humidity : 0%
Pressure : 0hPa


Vertical profile (SkewT) :


Elevation profile :



Receiving stations :


Receiver Frames First received Last received
WB7NNF 285 2026-09-03 17:24:14 2026-09-03 19:11:23

Share per receiver :



All frames :


Receiver Date Latitude Longitude Direction Speed Altitude Climb Temperature Humidity Pressure Voltage Killtimer Uptime BKT XDATA
WB7NNF2026-09-03 19:11:2348.23862-117.0371242°120km/h9795m-12.3m/s-45.4°C0%0hPa0V00:00:0000:00:0000:00:00
WB7NNF2026-09-03 19:11:0048.23367-117.0440245°120km/h10084m-12.8m/s-46.1°C0%0hPa0V00:00:0000:00:0000:00:00
WB7NNF2026-09-03 19:10:2148.22567-117.0550342°106km/h10585m-11.6m/s-46.3°C0%0hPa0V00:00:0000:00:0000:00:00
WB7NNF2026-09-03 19:09:4848.21885-117.0630437°100km/h10955m-10.9m/s-45.6°C0%0hPa0V00:00:0000:00:0000:00:00
WB7NNF2026-09-03 19:09:2748.21493-117.0670631°89km/h11173m-11.2m/s-44.0°C0%0hPa0V00:00:0000:00:0000:00:00
WB7NNF2026-09-03 19:06:5748.19021-117.0967535°73km/h12857m-10.8m/s-46.9°C0%0hPa0V00:00:0000:00:0000:00:00
WB7NNF2026-09-03 19:06:3748.18684-117.0999737°77km/h13091m-11.4m/s-46.7°C0%0hPa0V00:00:0000:00:0000:00:00
WB7NNF2026-09-03 19:06:1648.18412-117.1033838°64km/h13315m-10.8m/s-46.9°C0%0hPa0V00:00:0000:00:0000:00:00
WB7NNF2026-09-03 19:05:5648.18126-117.1060332°64km/h13547m-11.2m/s-47.9°C0%0hPa0V00:00:0000:00:0000:00:00
WB7NNF2026-09-03 19:05:3548.17860-117.1087141°62km/h13772m-11.0m/s-48.0°C0%0hPa0V00:00:0000:00:0000:00:00
WB7NNF2026-09-03 19:05:1548.17605-117.1118537°64km/h14010m-11.6m/s-47.6°C0%0hPa0V00:00:0000:00:0000:00:00
WB7NNF2026-09-03 19:04:5448.17353-117.1146438°58km/h14275m-11.6m/s-47.3°C0%0hPa0V00:00:0000:00:0000:00:00
WB7NNF2026-09-03 19:04:3448.17135-117.1168125°42km/h14540m-11.4m/s-48.0°C0%0hPa0V00:00:0000:00:0000:00:00
WB7NNF2026-09-03 19:04:1348.16978-117.1177018°29km/h14782m-11.5m/s-49.5°C0%0hPa0V00:00:0000:00:0000:00:00
WB7NNF2026-09-03 19:03:5348.16805-117.1183823°44km/h15024m-11.3m/s-50.6°C0%0hPa0V00:00:0000:00:0000:00:00
WB7NNF2026-09-03 19:03:3248.16596-117.1198026°51km/h15252m-11.4m/s-50.3°C0%0hPa0V00:00:0000:00:0000:00:00
WB7NNF2026-09-03 19:03:1248.16314-117.1220838°66km/h15493m-11.5m/s-49.6°C0%0hPa0V00:00:0000:00:0000:00:00
WB7NNF2026-09-03 19:02:5148.16156-117.1247355°27km/h15853m-18.6m/s-49.2°C0%0hPa0V00:00:0000:00:0000:00:00
WB7NNF2026-09-03 19:02:3148.16092-117.1263252°26km/h16235m-17.4m/s-50.8°C0%0hPa0V00:00:0000:00:0000:00:00
WB7NNF2026-09-03 19:02:1048.15980-117.1275614°38km/h16624m-17.5m/s-50.8°C0%0hPa0V00:00:0000:00:0000:00:00
WB7NNF2026-09-03 19:01:4948.15777-117.1285121°55km/h16998m-14.8m/s-48.8°C0%0hPa0V00:00:0000:00:0000:00:00
WB7NNF2026-09-03 19:01:2948.15613-117.1305150°29km/h17286m-13.9m/s-47.3°C0%0hPa0V00:00:0000:00:0000:00:00
WB7NNF2026-09-03 19:01:0848.15513-117.1313924km/h17561m-13.6m/s-48.9°C0%0hPa0V00:00:0000:00:0000:00:00
WB7NNF2026-09-03 19:00:4848.15357-117.13172350°35km/h17848m-14.1m/s-49.5°C0%0hPa0V00:00:0000:00:0000:00:00
WB7NNF2026-09-03 19:00:2748.15131-117.1322921°47km/h18133m-14.3m/s-49.9°C0%0hPa0V00:00:0000:00:0000:00:00
WB7NNF2026-09-03 19:00:0748.14904-117.1333447°42km/h18448m-15.4m/s-50.1°C0%0hPa0V00:00:0000:00:0000:00:00
WB7NNF2026-09-03 18:59:4648.14791-117.1351439°27km/h18758m-15.6m/s-50.3°C0%0hPa0V00:00:0000:00:0000:00:00
WB7NNF2026-09-03 18:59:2648.14694-117.1363321°29km/h19086m-15.9m/s-50.5°C0%0hPa0V00:00:0000:00:0000:00:00
WB7NNF2026-09-03 18:59:0548.14605-117.1382990°29km/h19404m-16.1m/s-50.7°C0%0hPa0V00:00:0000:00:0000:00:00
WB7NNF2026-09-03 18:58:2448.14623-117.14017109°7km/h20077m-17.1m/s-52.8°C0%0hPa0V00:00:0000:00:0000:00:00
WB7NNF2026-09-03 18:58:0448.14605-117.13906333°24km/h20433m-16.4m/s-52.8°C0%0hPa0V00:00:0000:00:0000:00:00
WB7NNF2026-09-03 18:57:4348.14508-117.13728322°35km/h20787m-17.9m/s-52.3°C0%0hPa0V00:00:0000:00:0000:00:00
WB7NNF2026-09-03 18:57:2348.14490-117.13643148°9km/h21164m-18.5m/s-53.1°C0%0hPa0V00:00:0000:00:0000:00:00
WB7NNF2026-09-03 18:57:0248.14451-117.13627353°5km/h21550m-19.2m/s-53.9°C0%0hPa0V00:00:0000:00:0000:00:00
WB7NNF2026-09-03 18:56:4148.14425-117.13610326°15km/h21930m-19.7m/s-54.6°C0%0hPa0V00:00:0000:00:0000:00:00
WB7NNF2026-09-03 18:56:2148.14388-117.1360446°15km/h22345m-20.2m/s-53.1°C0%0hPa0V00:00:0000:00:0000:00:00
WB7NNF2026-09-03 18:56:0048.14322-117.13640303°15km/h22751m-20.5m/s-53.4°C0%0hPa0V00:00:0000:00:0000:00:00
WB7NNF2026-09-03 18:55:4048.14250-117.13606337°27km/h23203m-20.3m/s-51.4°C0%0hPa0V00:00:0000:00:0000:00:00
WB7NNF2026-09-03 18:55:1948.14123-117.1360928°26km/h23636m-21.6m/s-52.9°C0%0hPa0V00:00:0000:00:0000:00:00
WB7NNF2026-09-03 18:54:5948.14067-117.135877km/h24107m-23.0m/s-51.5°C0%0hPa0V00:00:0000:00:0000:00:00
WB7NNF2026-09-03 18:54:3848.14057-117.13476280°9km/h24582m-24.2m/s-51.2°C0%0hPa0V00:00:0000:00:0000:00:00
WB7NNF2026-09-03 18:54:1848.14086-117.13463178°20km/h25104m-25.8m/s-49.0°C0%0hPa0V00:00:0000:00:0000:00:00
WB7NNF2026-09-03 18:53:5748.14179-117.13357246°26km/h25606m-26.6m/s-49.2°C0%0hPa0V00:00:0000:00:0000:00:00
WB7NNF2026-09-03 18:53:3548.14191-117.13168270°4km/h26201m-26.1m/s-49.6°C0%0hPa0V00:00:0000:00:0000:00:00
WB7NNF2026-09-03 18:53:1448.14212-117.13136261°22km/h26743m-28.5m/s-49.1°C0%0hPa0V00:00:0000:00:0000:00:00
WB7NNF2026-09-03 18:52:5448.14195-117.12910323°26km/h27484m-41.0m/s-50.0°C0%0hPa0V00:00:0000:00:0000:00:00
WB7NNF2026-09-03 18:52:3048.14083-117.1289828°18km/h28386m-36.8m/s-46.9°C0%0hPa0V00:00:0000:00:0000:00:00
WB7NNF2026-09-03 18:51:5048.14049-117.13010131°11km/h29880m-37.7m/s-45.6°C0%0hPa0V00:00:0000:00:0000:00:00
WB7NNF2026-09-03 18:51:3048.14074-117.13030287°5km/h30695m-39.9m/s-43.9°C0%0hPa0V00:00:0000:00:0000:00:00
WB7NNF2026-09-03 18:51:0948.14084-117.13058154°9km/h31539m-47.1m/s-41.4°C0%0hPa0V00:00:0000:00:0000:00:00
WB7NNF2026-09-03 18:50:4948.14124-117.13053185°49km/h31749m3.3m/s-41.5°C0%0hPa0V00:00:0000:00:0000:00:00
WB7NNF2026-09-03 18:50:2848.14184-117.1306555°20km/h31609m10.7m/s-41.3°C0%0hPa0V00:00:0000:00:0000:00:00
WB7NNF2026-09-03 18:50:0848.14191-117.13132325°11km/h31468m4.9m/s-41.3°C0%0hPa0V00:00:0000:00:0000:00:00
WB7NNF2026-09-03 18:49:4748.14223-117.13190163°31km/h31329m3.0m/s-41.0°C0%0hPa0V00:00:0000:00:0000:00:00
WB7NNF2026-09-03 18:49:2748.14174-117.13268251°44km/h31187m1.9m/s-41.9°C0%0hPa0V00:00:0000:00:0000:00:00
WB7NNF2026-09-03 18:49:0648.14147-117.1331310°26km/h31050m7.0m/s-42.4°C0%0hPa0V00:00:0000:00:0000:00:00
WB7NNF2026-09-03 18:48:4448.14120-117.13264245°57km/h30922m4.9m/s-43.4°C0%0hPa0V00:00:0000:00:0000:00:00
WB7NNF2026-09-03 18:48:2148.14134-117.13260172°15km/h30783m1.8m/s-43.7°C0%0hPa0V00:00:0000:00:0000:00:00
WB7NNF2026-09-03 18:48:0148.14116-117.1322627km/h30647m-0.3m/s-44.1°C0%0hPa0V00:00:0000:00:0000:00:00
WB7NNF2026-09-03 18:47:4048.14136-117.13220253°38km/h30521m-0.4m/s-44.0°C0%0hPa0V00:00:0000:00:0000:00:00
WB7NNF2026-09-03 18:47:1848.14189-117.13299151°37km/h30373m7.0m/s-44.3°C0%0hPa0V00:00:0000:00:0000:00:00
WB7NNF2026-09-03 18:46:5748.14177-117.13308235°47km/h30235m2.3m/s-45.0°C0%0hPa0V00:00:0000:00:0000:00:00
WB7NNF2026-09-03 18:46:3748.14202-117.13342299°37km/h30090m3.8m/s-45.3°C0%0hPa0V00:00:0000:00:0000:00:00
WB7NNF2026-09-03 18:46:1648.14243-117.13412334°26km/h29956m8.8m/s-45.6°C0%0hPa0V00:00:0000:00:0000:00:00
WB7NNF2026-09-03 18:45:5448.14304-117.1351846°20km/h29804m6.5m/s-45.6°C0%0hPa0V00:00:0000:00:0000:00:00
WB7NNF2026-09-03 18:45:3448.14315-117.1361965°51km/h29661m1.1m/s-45.7°C0%0hPa0V00:00:0000:00:0000:00:00
WB7NNF2026-09-03 18:45:1348.14268-117.1366729°58km/h29516m1.3m/s-45.7°C0%0hPa0V00:00:0000:00:0000:00:00
WB7NNF2026-09-03 18:44:5148.14231-117.13634317°35km/h29378m4.8m/s-45.9°C0%0hPa0V00:00:0000:00:0000:00:00
WB7NNF2026-09-03 18:44:2848.14266-117.13680205°33km/h29211m3.2m/s-45.5°C0%0hPa0V00:00:0000:00:0000:00:00
WB7NNF2026-09-03 18:44:0648.14256-117.13811280°44km/h29079m4.8m/s-45.7°C0%0hPa0V00:00:0000:00:0000:00:00
WB7NNF2026-09-03 18:43:4348.14209-117.13885331°40km/h28929m7.4m/s-45.4°C0%0hPa0V00:00:0000:00:0000:00:00
WB7NNF2026-09-03 18:43:2248.14127-117.13856309°47km/h28801m3.3m/s-45.4°C0%0hPa0V00:00:0000:00:0000:00:00
WB7NNF2026-09-03 18:42:4148.13979-117.1383415°44km/h28525m3.0m/s-46.9°C0%0hPa0V00:00:0000:00:0000:00:00
WB7NNF2026-09-03 18:42:0048.13830-117.1402317°53km/h28261m8.5m/s-47.9°C0%0hPa0V00:00:0000:00:0000:00:00
WB7NNF2026-09-03 18:41:4048.13760-117.14066315°62km/h28118m4.5m/s-48.5°C0%0hPa0V00:00:0000:00:0000:00:00
WB7NNF2026-09-03 18:41:1848.13689-117.13966270°66km/h27977m6.6m/s-48.8°C0%0hPa0V00:00:0000:00:0000:00:00
WB7NNF2026-09-03 18:40:5548.13606-117.13791338°68km/h27819m6.9m/s-49.1°C0%0hPa0V00:00:0000:00:0000:00:00
WB7NNF2026-09-03 18:40:3548.13523-117.13669342°64km/h27692m4.5m/s-49.1°C0%0hPa0V00:00:0000:00:0000:00:00
WB7NNF2026-09-03 18:40:1448.13424-117.13570341°62km/h27560m10.8m/s-49.8°C0%0hPa0V00:00:0000:00:0000:00:00
WB7NNF2026-09-03 18:39:5248.13346-117.13364264°64km/h27420m12.0m/s-49.5°C0%0hPa0V00:00:0000:00:0000:00:00
WB7NNF2026-09-03 18:39:3148.13352-117.13073219°51km/h27286m1.7m/s-49.7°C0%0hPa0V00:00:0000:00:0000:00:00
WB7NNF2026-09-03 18:39:0748.13398-117.12681196°46km/h27124m3.2m/s-49.2°C0%0hPa0V00:00:0000:00:0000:00:00
WB7NNF2026-09-03 18:38:4548.13447-117.12431174°46km/h26994m3.6m/s-48.7°C0%0hPa0V00:00:0000:00:0000:00:00
WB7NNF2026-09-03 18:38:2548.13516-117.12219142°57km/h26870m2.9m/s-48.5°C0%0hPa0V00:00:0000:00:0000:00:00
WB7NNF2026-09-03 18:38:0348.13556-117.12047355°13km/h26729m9.4m/s-48.8°C0%0hPa0V00:00:0000:00:0000:00:00
WB7NNF2026-09-03 18:37:4348.13612-117.11923297°31km/h26590m10.7m/s-49.1°C0%0hPa0V00:00:0000:00:0000:00:00
WB7NNF2026-09-03 18:37:2248.13691-117.11838120°42km/h26438m7.6m/s-48.4°C0%0hPa0V00:00:0000:00:0000:00:00
WB7NNF2026-09-03 18:37:0148.13703-117.11825102°40km/h26316m7.2m/s-48.7°C0%0hPa0V00:00:0000:00:0000:00:00
WB7NNF2026-09-03 18:36:3948.13662-117.1183257km/h26173m7.7m/s-49.0°C0%0hPa0V00:00:0000:00:0000:00:00
WB7NNF2026-09-03 18:36:1948.13617-117.11719309°69km/h26042m4.3m/s-49.4°C0%0hPa0V00:00:0000:00:0000:00:00
WB7NNF2026-09-03 18:35:5848.13574-117.11511281°68km/h25915m4.6m/s-50.2°C0%0hPa0V00:00:0000:00:0000:00:00
WB7NNF2026-09-03 18:35:3848.13587-117.11309255°68km/h25764m9.4m/s-49.7°C0%0hPa0V00:00:0000:00:0000:00:00
WB7NNF2026-09-03 18:35:1748.13665-117.11114151°29km/h25627m8.1m/s-48.9°C0%0hPa0V00:00:0000:00:0000:00:00
WB7NNF2026-09-03 18:34:3648.13818-117.10901273°29km/h25365m4.8m/s-49.0°C0%0hPa0V00:00:0000:00:0000:00:00
WB7NNF2026-09-03 18:34:1448.13899-117.10866151°47km/h25227m1.8m/s-49.4°C0%0hPa0V00:00:0000:00:0000:00:00
WB7NNF2026-09-03 18:33:3348.14008-117.10945104°40km/h24990m5.0m/s-50.0°C0%0hPa0V00:00:0000:00:0000:00:00
WB7NNF2026-09-03 18:33:1248.13985-117.1102264°44km/h24876m3.5m/s-51.5°C0%0hPa0V00:00:0000:00:0000:00:00
WB7NNF2026-09-03 18:32:5248.13953-117.11072311°33km/h24753m9.8m/s-52.3°C0%0hPa0V00:00:0000:00:0000:00:00
WB7NNF2026-09-03 18:32:3148.13921-117.1104911°20km/h24644m5.8m/s-51.9°C0%0hPa0V00:00:0000:00:0000:00:00
WB7NNF2026-09-03 18:32:1148.13916-117.10948267°35km/h24518m-2.3m/s-52.1°C0%0hPa0V00:00:0000:00:0000:00:00
WB7NNF2026-09-03 18:31:2948.13861-117.1085839°5km/h24258m5.4m/s-52.1°C0%0hPa0V00:00:0000:00:0000:00:00
WB7NNF2026-09-03 18:31:0948.13800-117.1084745°24km/h24127m10.4m/s-52.2°C0%0hPa0V00:00:0000:00:0000:00:00
WB7NNF2026-09-03 18:30:4848.13736-117.1079937°29km/h24005m6.9m/s-52.0°C0%0hPa0V00:00:0000:00:0000:00:00
WB7NNF2026-09-03 18:30:2848.13715-117.10799120°46km/h23877m4.9m/s-52.1°C0%0hPa0V00:00:0000:00:0000:00:00
WB7NNF2026-09-03 18:30:0748.13733-117.10886107°26km/h23757m4.7m/s-52.6°C0%0hPa0V00:00:0000:00:0000:00:00
WB7NNF2026-09-03 18:29:4748.13682-117.11031301°18km/h23637m7.5m/s-52.8°C0%0hPa0V00:00:0000:00:0000:00:00
WB7NNF2026-09-03 18:29:2648.13577-117.1110828°11km/h23519m6.1m/s-52.7°C0%0hPa0V00:00:0000:00:0000:00:00
WB7NNF2026-09-03 18:29:0648.13435-117.1113066°20km/h23388m9.3m/s-52.1°C0%0hPa0V00:00:0000:00:0000:00:00
WB7NNF2026-09-03 18:28:4548.13325-117.11104348°18km/h23270m7.8m/s-51.4°C0%0hPa0V00:00:0000:00:0000:00:00
WB7NNF2026-09-03 18:28:2548.13285-117.1110446°5km/h23136m7.4m/s-52.3°C0%0hPa0V00:00:0000:00:0000:00:00
WB7NNF2026-09-03 18:28:0448.13246-117.11104303°22km/h23021m5.8m/s-53.4°C0%0hPa0V00:00:0000:00:0000:00:00
WB7NNF2026-09-03 18:27:4448.13177-117.11024287°15km/h22893m6.9m/s-53.7°C0%0hPa0V00:00:0000:00:0000:00:00
WB7NNF2026-09-03 18:27:2348.13153-117.10894245°40km/h22771m4.5m/s-53.2°C0%0hPa0V00:00:0000:00:0000:00:00
WB7NNF2026-09-03 18:26:4248.13097-117.10835313°27km/h22538m-0.7m/s-52.5°C0%0hPa0V00:00:0000:00:0000:00:00
WB7NNF2026-09-03 18:26:2248.13023-117.1084139°18km/h22426m8.8m/s-53.9°C0%0hPa0V00:00:0000:00:0000:00:00
WB7NNF2026-09-03 18:26:0148.13002-117.10877360°7km/h22309m3.4m/s-53.9°C0%0hPa0V00:00:0000:00:0000:00:00
WB7NNF2026-09-03 18:25:4048.12995-117.10843288°9km/h22195m6.5m/s-54.2°C0%0hPa0V00:00:0000:00:0000:00:00
WB7NNF2026-09-03 18:25:2048.12998-117.10812243°20km/h22079m3.6m/s-53.8°C0%0hPa0V00:00:0000:00:0000:00:00
WB7NNF2026-09-03 18:24:5948.12966-117.1079962°29km/h21966m3.0m/s-54.4°C0%0hPa0V00:00:0000:00:0000:00:00
WB7NNF2026-09-03 18:24:3948.12960-117.10751242°47km/h21843m4.3m/s-54.3°C0%0hPa0V00:00:0000:00:0000:00:00
WB7NNF2026-09-03 18:24:1848.12958-117.10703182°5km/h21739m6.4m/s-53.7°C0%0hPa0V00:00:0000:00:0000:00:00
WB7NNF2026-09-03 18:23:5848.12955-117.10683218°7km/h21631m5.9m/s-53.0°C0%0hPa0V00:00:0000:00:0000:00:00
WB7NNF2026-09-03 18:23:3748.12949-117.10674275°13km/h21525m4.4m/s-53.3°C0%0hPa0V00:00:0000:00:0000:00:00
WB7NNF2026-09-03 18:23:1748.12926-117.10675313°13km/h21409m5.6m/s-52.8°C0%0hPa0V00:00:0000:00:0000:00:00
WB7NNF2026-09-03 18:22:5648.12915-117.10641315°24km/h21299m8.7m/s-52.9°C0%0hPa0V00:00:0000:00:0000:00:00
WB7NNF2026-09-03 18:22:3648.12876-117.10535348°33km/h21186m6.2m/s-52.4°C0%0hPa0V00:00:0000:00:0000:00:00
WB7NNF2026-09-03 18:22:1548.12868-117.10469178°20km/h21073m7.8m/s-52.0°C0%0hPa0V00:00:0000:00:0000:00:00
WB7NNF2026-09-03 18:21:5548.12889-117.10433290°24km/h20959m3.1m/s-52.3°C0%0hPa0V00:00:0000:00:0000:00:00
WB7NNF2026-09-03 18:21:3448.12901-117.10327204°20km/h20844m7.4m/s-51.8°C0%0hPa0V00:00:0000:00:0000:00:00
WB7NNF2026-09-03 18:21:1448.12841-117.10142312°40km/h20717m6.2m/s-52.1°C0%0hPa0V00:00:0000:00:0000:00:00
WB7NNF2026-09-03 18:20:5348.12776-117.09923279°38km/h20605m7.2m/s-51.7°C0%0hPa0V00:00:0000:00:0000:00:00
WB7NNF2026-09-03 18:20:3248.12729-117.0978711km/h20483m4.8m/s-52.1°C0%0hPa0V00:00:0000:00:0000:00:00
WB7NNF2026-09-03 18:20:1248.12706-117.09743308°20km/h20365m3.7m/s-52.2°C0%0hPa0V00:00:0000:00:0000:00:00
WB7NNF2026-09-03 18:19:5048.12691-117.09683250°22km/h20242m4.8m/s-52.2°C0%0hPa0V00:00:0000:00:0000:00:00
WB7NNF2026-09-03 18:19:2948.12678-117.09641146°15km/h20132m2.3m/s-52.0°C0%0hPa0V00:00:0000:00:0000:00:00
WB7NNF2026-09-03 18:19:0848.12695-117.09595239°38km/h20015m6.6m/s-51.6°C0%0hPa0V00:00:0000:00:0000:00:00
WB7NNF2026-09-03 18:18:4848.12719-117.09530334°15km/h19898m8.9m/s-50.7°C0%0hPa0V00:00:0000:00:0000:00:00
WB7NNF2026-09-03 18:18:2748.12764-117.0954965°29km/h19773m5.5m/s-49.8°C0%0hPa0V00:00:0000:00:0000:00:00
WB7NNF2026-09-03 18:18:0748.12794-117.09614142°11km/h19663m4.2m/s-49.1°C0%0hPa0V00:00:0000:00:0000:00:00
WB7NNF2026-09-03 18:17:4648.12808-117.0973084°38km/h19540m6.6m/s-50.2°C0%0hPa0V00:00:0000:00:0000:00:00
WB7NNF2026-09-03 18:17:2648.12754-117.0996742°29km/h19435m8.0m/s-50.5°C0%0hPa0V00:00:0000:00:0000:00:00
WB7NNF2026-09-03 18:17:0548.12662-117.1018249°38km/h19335m4.8m/s-50.8°C0%0hPa0V00:00:0000:00:0000:00:00
WB7NNF2026-09-03 18:16:4548.12513-117.1041936°49km/h19231m6.3m/s-51.7°C0%0hPa0V00:00:0000:00:0000:00:00
WB7NNF2026-09-03 18:16:2448.12344-117.1057419°38km/h19134m4.7m/s-51.3°C0%0hPa0V00:00:0000:00:0000:00:00
WB7NNF2026-09-03 18:16:0448.12217-117.1073717°26km/h19020m7.0m/s-50.5°C0%0hPa0V00:00:0000:00:0000:00:00
WB7NNF2026-09-03 18:15:4348.12123-117.1085474°16km/h18922m6.5m/s-50.3°C0%0hPa0V00:00:0000:00:0000:00:00
WB7NNF2026-09-03 18:15:2348.12067-117.1099841°27km/h18806m5.7m/s-49.9°C0%0hPa0V00:00:0000:00:0000:00:00
WB7NNF2026-09-03 18:14:4248.11932-117.1135358°29km/h18591m7.2m/s-49.6°C0%0hPa0V00:00:0000:00:0000:00:00
WB7NNF2026-09-03 18:14:2148.11764-117.1155136°46km/h18471m6.5m/s-49.7°C0%0hPa0V00:00:0000:00:0000:00:00
WB7NNF2026-09-03 18:14:0048.11555-117.1171926°49km/h18362m6.3m/s-49.4°C0%0hPa0V00:00:0000:00:0000:00:00
WB7NNF2026-09-03 18:13:4048.11326-117.1178025°47km/h18248m5.3m/s-49.1°C0%0hPa0V00:00:0000:00:0000:00:00
WB7NNF2026-09-03 18:13:1948.11072-117.1179917°42km/h18149m5.0m/s-49.2°C0%0hPa0V00:00:0000:00:0000:00:00
WB7NNF2026-09-03 18:12:5948.10814-117.1183625°51km/h18039m5.0m/s-49.7°C0%0hPa0V00:00:0000:00:0000:00:00
WB7NNF2026-09-03 18:12:3848.10562-117.11871334°37km/h17934m3.7m/s-50.0°C0%0hPa0V00:00:0000:00:0000:00:00
WB7NNF2026-09-03 18:12:1848.10336-117.1189144°40km/h17818m7.3m/s-49.9°C0%0hPa0V00:00:0000:00:0000:00:00
WB7NNF2026-09-03 18:11:5748.10198-117.1194722km/h17707m4.3m/s-49.9°C0%0hPa0V00:00:0000:00:0000:00:00
WB7NNF2026-09-03 18:11:3748.10113-117.1199631°11km/h17598m4.2m/s-49.3°C0%0hPa0V00:00:0000:00:0000:00:00
WB7NNF2026-09-03 18:11:1648.10058-117.12019305°27km/h17498m2.8m/s-48.5°C0%0hPa0V00:00:0000:00:0000:00:00
WB7NNF2026-09-03 18:10:5648.09968-117.1208619°35km/h17395m4.2m/s-48.6°C0%0hPa0V00:00:0000:00:0000:00:00
WB7NNF2026-09-03 18:10:3548.09846-117.1218628°22km/h17306m3.7m/s-48.4°C0%0hPa0V00:00:0000:00:0000:00:00
WB7NNF2026-09-03 18:10:1548.09673-117.1234422°37km/h17216m4.9m/s-49.5°C0%0hPa0V00:00:0000:00:0000:00:00
WB7NNF2026-09-03 18:09:5448.09507-117.1252342°37km/h17128m4.1m/s-49.6°C0%0hPa0V00:00:0000:00:0000:00:00
WB7NNF2026-09-03 18:09:3448.09311-117.1268039°38km/h17039m5.1m/s-49.8°C0%0hPa0V00:00:0000:00:0000:00:00
WB7NNF2026-09-03 18:09:1348.09083-117.1279134°38km/h16937m6.3m/s-50.2°C0%0hPa0V00:00:0000:00:0000:00:00
WB7NNF2026-09-03 18:08:5248.08889-117.1286053km/h16837m6.4m/s-51.5°C0%0hPa0V00:00:0000:00:0000:00:00
WB7NNF2026-09-03 18:08:3248.08690-117.1287916°42km/h16722m7.1m/s-51.6°C0%0hPa0V00:00:0000:00:0000:00:00
WB7NNF2026-09-03 18:08:1248.08499-117.1291010°26km/h16615m3.7m/s-51.3°C0%0hPa0V00:00:0000:00:0000:00:00
WB7NNF2026-09-03 18:07:5148.08329-117.1299227km/h16508m6.3m/s-50.6°C0%0hPa0V00:00:0000:00:0000:00:00
WB7NNF2026-09-03 18:07:3048.08206-117.1308118°44km/h16403m5.8m/s-49.9°C0%0hPa0V00:00:0000:00:0000:00:00
WB7NNF2026-09-03 18:07:1048.08105-117.1319449°22km/h16298m5.5m/s-49.6°C0%0hPa0V00:00:0000:00:0000:00:00
WB7NNF2026-09-03 18:06:5048.08039-117.1335176°24km/h16204m5.8m/s-49.6°C0%0hPa0V00:00:0000:00:0000:00:00
WB7NNF2026-09-03 18:06:2948.07980-117.1353458°33km/h16106m4.2m/s-48.9°C0%0hPa0V00:00:0000:00:0000:00:00
WB7NNF2026-09-03 18:06:0848.07903-117.1370460°38km/h16010m3.1m/s-48.9°C0%0hPa0V00:00:0000:00:0000:00:00
WB7NNF2026-09-03 18:05:4848.07803-117.1386924°40km/h15914m5.7m/s-49.8°C0%0hPa0V00:00:0000:00:0000:00:00
WB7NNF2026-09-03 18:05:2748.07625-117.1408244°68km/h15822m4.4m/s-50.5°C0%0hPa0V00:00:0000:00:0000:00:00
WB7NNF2026-09-03 18:05:0748.07399-117.1439232°77km/h15721m6.2m/s-50.5°C0%0hPa0V00:00:0000:00:0000:00:00
WB7NNF2026-09-03 18:04:4648.07141-117.1469850°51km/h15626m4.8m/s-50.3°C0%0hPa0V00:00:0000:00:0000:00:00
WB7NNF2026-09-03 18:04:2648.06867-117.1497540°60km/h15520m3.7m/s-50.4°C0%0hPa0V00:00:0000:00:0000:00:00
WB7NNF2026-09-03 18:04:0548.06605-117.1523839°64km/h15420m5.8m/s-50.3°C0%0hPa0V00:00:0000:00:0000:00:00
WB7NNF2026-09-03 18:03:4548.06367-117.1548430°64km/h15313m3.8m/s-49.9°C0%0hPa0V00:00:0000:00:0000:00:00
WB7NNF2026-09-03 18:03:2448.06183-117.1569122°37km/h15206m5.7m/s-49.8°C0%0hPa0V00:00:0000:00:0000:00:00
WB7NNF2026-09-03 18:02:4348.05841-117.1610330°68km/h14983m4.0m/s-50.4°C0%0hPa0V00:00:0000:00:0000:00:00
WB7NNF2026-09-03 18:02:2248.05632-117.1627567°44km/h14881m3.3m/s-49.9°C0%0hPa0V00:00:0000:00:0000:00:00
WB7NNF2026-09-03 18:02:0248.05428-117.1646516°42km/h14776m4.0m/s-50.0°C0%0hPa0V00:00:0000:00:0000:00:00
WB7NNF2026-09-03 18:01:4148.05243-117.1660823°38km/h14679m5.9m/s-49.3°C0%0hPa0V00:00:0000:00:0000:00:00
WB7NNF2026-09-03 18:01:2148.05056-117.1676638°62km/h14576m4.5m/s-48.8°C0%0hPa0V00:00:0000:00:0000:00:00
WB7NNF2026-09-03 18:01:0048.04875-117.1695330°49km/h14477m3.5m/s-48.9°C0%0hPa0V00:00:0000:00:0000:00:00
WB7NNF2026-09-03 18:00:4048.04621-117.1716829°60km/h14390m5.1m/s-48.6°C0%0hPa0V00:00:0000:00:0000:00:00
WB7NNF2026-09-03 18:00:1948.04392-117.1732738°38km/h14305m4.6m/s-48.3°C0%0hPa0V00:00:0000:00:0000:00:00
WB7NNF2026-09-03 17:59:5948.04146-117.1750914°49km/h14221m4.2m/s-48.0°C0%0hPa0V00:00:0000:00:0000:00:00
WB7NNF2026-09-03 17:59:3848.03913-117.1769312°62km/h14136m3.4m/s-48.0°C0%0hPa0V00:00:0000:00:0000:00:00
WB7NNF2026-09-03 17:59:1848.03684-117.1786337°51km/h14049m4.9m/s-47.7°C0%0hPa0V00:00:0000:00:0000:00:00
WB7NNF2026-09-03 17:58:5748.03486-117.1805335°58km/h13961m5.0m/s-47.1°C0%0hPa0V00:00:0000:00:0000:00:00
WB7NNF2026-09-03 17:58:3748.03272-117.1829237°55km/h13871m5.3m/s-47.2°C0%0hPa0V00:00:0000:00:0000:00:00
WB7NNF2026-09-03 17:58:1648.03024-117.1856239°78km/h13778m4.4m/s-47.4°C0%0hPa0V00:00:0000:00:0000:00:00
WB7NNF2026-09-03 17:57:5548.02782-117.1883651°49km/h13686m3.4m/s-46.9°C0%0hPa0V00:00:0000:00:0000:00:00
WB7NNF2026-09-03 17:57:3548.02553-117.1909444°53km/h13584m3.6m/s-46.7°C0%0hPa0V00:00:0000:00:0000:00:00
WB7NNF2026-09-03 17:56:5448.02065-117.1957535°58km/h13383m6.2m/s-47.3°C0%0hPa0V00:00:0000:00:0000:00:00
WB7NNF2026-09-03 17:56:3448.01847-117.1986836°58km/h13281m5.5m/s-47.4°C0%0hPa0V00:00:0000:00:0000:00:00
WB7NNF2026-09-03 17:56:1348.01628-117.2017440°49km/h13182m5.8m/s-47.0°C0%0hPa0V00:00:0000:00:0000:00:00
WB7NNF2026-09-03 17:55:3248.01219-117.2081852°78km/h12988m2.8m/s-46.9°C0%0hPa0V00:00:0000:00:0000:00:00
WB7NNF2026-09-03 17:55:1148.01006-117.2114842°69km/h12899m5.5m/s-46.4°C0%0hPa0V00:00:0000:00:0000:00:00
WB7NNF2026-09-03 17:54:5148.00764-117.2146546°73km/h12808m2.8m/s-46.2°C0%0hPa0V00:00:0000:00:0000:00:00
WB7NNF2026-09-03 17:54:3048.00535-117.2176534°62km/h12726m4.7m/s-46.3°C0%0hPa0V00:00:0000:00:0000:00:00
WB7NNF2026-09-03 17:54:1048.00291-117.2208148°51km/h12646m2.9m/s-46.3°C0%0hPa0V00:00:0000:00:0000:00:00
WB7NNF2026-09-03 17:53:4948.00058-117.2240135°47km/h12567m3.5m/s-46.1°C0%0hPa0V00:00:0000:00:0000:00:00
WB7NNF2026-09-03 17:53:2947.99780-117.2270342°64km/h12487m3.0m/s-46.0°C0%0hPa0V00:00:0000:00:0000:00:00
WB7NNF2026-09-03 17:53:0847.99484-117.2296630°66km/h12411m4.0m/s-46.6°C0%0hPa0V00:00:0000:00:0000:00:00
WB7NNF2026-09-03 17:52:4847.99187-117.2324730°60km/h12322m3.2m/s-46.3°C0%0hPa0V00:00:0000:00:0000:00:00
WB7NNF2026-09-03 17:52:2747.98915-117.2354755°51km/h12234m2.0m/s-45.8°C0%0hPa0V00:00:0000:00:0000:00:00
WB7NNF2026-09-03 17:52:0547.98648-117.2389039°78km/h12138m9.8m/s-45.6°C0%0hPa0V00:00:0000:00:0000:00:00
WB7NNF2026-09-03 17:51:4447.98377-117.2427345°68km/h12041m4.9m/s-45.6°C0%0hPa0V00:00:0000:00:0000:00:00
WB7NNF2026-09-03 17:51:2447.98104-117.2462232°71km/h11950m4.9m/s-45.6°C0%0hPa0V00:00:0000:00:0000:00:00
WB7NNF2026-09-03 17:51:0347.97842-117.2496648°62km/h11860m3.3m/s-45.3°C0%0hPa0V00:00:0000:00:0000:00:00
WB7NNF2026-09-03 17:50:4347.97573-117.2540849°82km/h11769m3.8m/s-44.8°C0%0hPa0V00:00:0000:00:0000:00:00
WB7NNF2026-09-03 17:50:2247.97299-117.2584839°62km/h11676m4.3m/s-44.6°C0%0hPa0V00:00:0000:00:0000:00:00
WB7NNF2026-09-03 17:49:4147.96669-117.2678154°88km/h11471m3.5m/s-44.5°C0%0hPa0V00:00:0000:00:0000:00:00
WB7NNF2026-09-03 17:49:0647.96054-117.2757839°108km/h11308m2.6m/s-45.0°C0%0hPa0V00:00:0000:00:0000:00:00
WB7NNF2026-09-03 17:48:4547.95708-117.2806935°80km/h11199m4.7m/s-45.1°C0%0hPa0V00:00:0000:00:0000:00:00
WB7NNF2026-09-03 17:48:2447.95384-117.2853250°71km/h11099m4.9m/s-44.7°C0%0hPa0V00:00:0000:00:0000:00:00
WB7NNF2026-09-03 17:48:0247.95046-117.2898343°77km/h11003m2.6m/s-44.6°C0%0hPa0V00:00:0000:00:0000:00:00
WB7NNF2026-09-03 17:47:4247.94689-117.2945449°88km/h10906m5.8m/s-45.6°C0%0hPa0V00:00:0000:00:0000:00:00
WB7NNF2026-09-03 17:47:2147.94327-117.2989837°89km/h10816m3.9m/s-45.5°C0%0hPa0V00:00:0000:00:0000:00:00
WB7NNF2026-09-03 17:47:0147.93932-117.3035538°108km/h10721m3.9m/s-45.7°C0%0hPa0V00:00:0000:00:0000:00:00
WB7NNF2026-09-03 17:46:4047.93527-117.3085850°102km/h10631m3.8m/s-46.2°C0%0hPa0V00:00:0000:00:0000:00:00
WB7NNF2026-09-03 17:46:1847.93141-117.3140946°106km/h10537m4.1m/s-46.1°C0%0hPa0V00:00:0000:00:0000:00:00
WB7NNF2026-09-03 17:45:5747.92739-117.3202846°110km/h10443m5.4m/s-45.8°C0%0hPa0V00:00:0000:00:0000:00:00
WB7NNF2026-09-03 17:45:3747.92325-117.3262744°91km/h10350m4.3m/s-46.2°C0%0hPa0V00:00:0000:00:0000:00:00
WB7NNF2026-09-03 17:45:1647.91936-117.3320950°108km/h10266m3.9m/s-45.8°C0%0hPa0V00:00:0000:00:0000:00:00
WB7NNF2026-09-03 17:44:5647.91491-117.3385743°119km/h10177m4.3m/s-46.2°C0%0hPa0V00:00:0000:00:0000:00:00
WB7NNF2026-09-03 17:44:3547.91045-117.3450848°113km/h10091m4.7m/s-45.9°C0%0hPa0V00:00:0000:00:0000:00:00
WB7NNF2026-09-03 17:44:1447.90612-117.3513748°128km/h10005m4.2m/s-46.0°C0%0hPa0V00:00:0000:00:0000:00:00
WB7NNF2026-09-03 17:43:5447.90135-117.3578652°124km/h9920m6.2m/s-46.0°C0%0hPa0V00:00:0000:00:0000:00:00
WB7NNF2026-09-03 17:43:3347.89699-117.3644246°135km/h9832m2.0m/s-45.8°C0%0hPa0V00:00:0000:00:0000:00:00
WB7NNF2026-09-03 17:43:1347.89234-117.3718152°133km/h9728m7.3m/s-45.1°C0%0hPa0V00:00:0000:00:0000:00:00
WB7NNF2026-09-03 17:42:5247.88737-117.3792953°144km/h9609m3.6m/s-44.2°C0%0hPa0V00:00:0000:00:0000:00:00
WB7NNF2026-09-03 17:42:3247.88201-117.3874342°126km/h9514m3.8m/s-44.2°C0%0hPa0V00:00:0000:00:0000:00:00
WB7NNF2026-09-03 17:42:1147.87744-117.3948747°146km/h9409m4.3m/s-43.2°C0%0hPa0V00:00:0000:00:0000:00:00
WB7NNF2026-09-03 17:41:5147.87274-117.4026543°146km/h9312m4.5m/s-42.8°C0%0hPa0V00:00:0000:00:0000:00:00
WB7NNF2026-09-03 17:41:3047.86813-117.4102251°150km/h9224m3.6m/s-42.5°C0%0hPa0V00:00:0000:00:0000:00:00
WB7NNF2026-09-03 17:41:1047.86358-117.4178550°113km/h9114m5.2m/s-41.8°C0%0hPa0V00:00:0000:00:0000:00:00
WB7NNF2026-09-03 17:40:4947.85972-117.4249248°128km/h8996m3.6m/s-41.0°C0%0hPa0V00:00:0000:00:0000:00:00
WB7NNF2026-09-03 17:40:2947.85572-117.4314953°119km/h8893m4.9m/s-40.5°C0%0hPa0V00:00:0000:00:0000:00:00
WB7NNF2026-09-03 17:40:0847.85162-117.4380254°111km/h8792m6.7m/s-39.9°C0%0hPa0V00:00:0000:00:0000:00:00
WB7NNF2026-09-03 17:39:4747.84765-117.4437541°108km/h8694m5.7m/s-39.4°C0%0hPa0V00:00:0000:00:0000:00:00
WB7NNF2026-09-03 17:39:2747.84341-117.4490733°95km/h8593m6.9m/s-39.6°C0%0hPa0V00:00:0000:00:0000:00:00
WB7NNF2026-09-03 17:39:0647.83932-117.4537241°89km/h8500m4.5m/s-39.2°C0%0hPa0V00:00:0000:00:0000:00:00
WB7NNF2026-09-03 17:38:4647.83509-117.4586645°100km/h8398m4.0m/s-38.6°C0%0hPa0V00:00:0000:00:0000:00:00
WB7NNF2026-09-03 17:38:2547.83108-117.4632341°100km/h8292m4.2m/s-37.9°C0%0hPa0V00:00:0000:00:0000:00:00
WB7NNF2026-09-03 17:38:0547.82685-117.4684336°86km/h8197m5.3m/s-37.3°C0%0hPa0V00:00:0000:00:0000:00:00
WB7NNF2026-09-03 17:37:4447.82297-117.4733635°100km/h8095m4.2m/s-36.4°C0%0hPa0V00:00:0000:00:0000:00:00
WB7NNF2026-09-03 17:37:2447.81890-117.4788439°102km/h7984m6.2m/s-35.5°C0%0hPa0V00:00:0000:00:0000:00:00
WB7NNF2026-09-03 17:36:4347.81122-117.4901351°115km/h7774m5.1m/s-33.8°C0%0hPa0V00:00:0000:00:0000:00:00
WB7NNF2026-09-03 17:36:2247.80727-117.4962145°99km/h7672m3.9m/s-33.0°C0%0hPa0V00:00:0000:00:0000:00:00
WB7NNF2026-09-03 17:36:0047.80357-117.5021645°110km/h7568m6.3m/s-32.5°C0%0hPa0V00:00:0000:00:0000:00:00
WB7NNF2026-09-03 17:35:3947.80001-117.5077352°110km/h7463m6.0m/s-32.2°C0%0hPa0V00:00:0000:00:0000:00:00
WB7NNF2026-09-03 17:35:1947.79712-117.5127555°88km/h7347m3.9m/s-31.3°C0%0hPa0V00:00:0000:00:0000:00:00
WB7NNF2026-09-03 17:34:5847.79373-117.5178442°73km/h7234m4.2m/s-30.7°C0%0hPa0V00:00:0000:00:0000:00:00
WB7NNF2026-09-03 17:34:3647.79032-117.5228443°113km/h7129m6.3m/s-29.9°C0%0hPa0V00:00:0000:00:0000:00:00
WB7NNF2026-09-03 17:34:1347.78611-117.5285147°115km/h7008m5.7m/s-28.9°C0%0hPa0V00:00:0000:00:0000:00:00
WB7NNF2026-09-03 17:33:4747.78231-117.5348046°97km/h6866m6.2m/s-27.9°C0%0hPa0V00:00:0000:00:0000:00:00
WB7NNF2026-09-03 17:33:2547.77893-117.5398030°95km/h6729m5.0m/s-26.9°C0%0hPa0V00:00:0000:00:0000:00:00
WB7NNF2026-09-03 17:32:5947.77516-117.5446632°73km/h6591m4.5m/s-26.2°C0%0hPa0V00:00:0000:00:0000:00:00
WB7NNF2026-09-03 17:32:3847.77262-117.5483236°78km/h6487m4.3m/s-25.5°C0%0hPa0V00:00:0000:00:0000:00:00
WB7NNF2026-09-03 17:32:1847.76988-117.5519955°66km/h6384m3.4m/s-24.7°C0%0hPa0V00:00:0000:00:0000:00:00
WB7NNF2026-09-03 17:31:5347.76683-117.5559560°66km/h6230m5.6m/s-24.4°C0%0hPa0V00:00:0000:00:0000:00:00
WB7NNF2026-09-03 17:31:3347.76456-117.5588418°51km/h6109m5.3m/s-24.1°C0%0hPa0V00:00:0000:00:0000:00:00
WB7NNF2026-09-03 17:31:1247.76242-117.5606237km/h5987m5.9m/s-23.4°C0%0hPa0V00:00:0000:00:0000:00:00
WB7NNF2026-09-03 17:30:5247.76067-117.5625836°29km/h5867m6.7m/s-22.4°C0%0hPa0V00:00:0000:00:0000:00:00
WB7NNF2026-09-03 17:30:3147.75844-117.5634118°58km/h5752m5.0m/s-21.4°C0%0hPa0V00:00:0000:00:0000:00:00
WB7NNF2026-09-03 17:30:0947.75614-117.5645217°37km/h5634m5.8m/s-20.7°C0%0hPa0V00:00:0000:00:0000:00:00
WB7NNF2026-09-03 17:29:4447.75341-117.5663644°58km/h5487m5.0m/s-20.0°C0%0hPa0V00:00:0000:00:0000:00:00
WB7NNF2026-09-03 17:29:1847.75068-117.5683216°66km/h5345m4.4m/s-18.9°C0%0hPa0V00:00:0000:00:0000:00:00
WB7NNF2026-09-03 17:28:5447.74837-117.5702853°42km/h5190m5.3m/s-17.7°C0%0hPa0V00:00:0000:00:0000:00:00
WB7NNF2026-09-03 17:28:3047.74631-117.5720873°29km/h5078m3.5m/s-16.8°C0%0hPa0V00:00:0000:00:0000:00:00
WB7NNF2026-09-03 17:28:0947.74457-117.5739130°55km/h4972m5.3m/s-16.1°C0%0hPa0V00:00:0000:00:0000:00:00
WB7NNF2026-09-03 17:27:4447.74275-117.5761463°47km/h4833m4.3m/s-14.9°C0%0hPa0V00:00:0000:00:0000:00:00
WB7NNF2026-09-03 17:27:2347.74111-117.5780361°37km/h4718m5.4m/s-14.5°C0%0hPa0V00:00:0000:00:0000:00:00
WB7NNF2026-09-03 17:27:0247.73911-117.5796053°51km/h4592m6.9m/s-13.8°C0%0hPa0V00:00:0000:00:0000:00:00
WB7NNF2026-09-03 17:26:4147.73672-117.5812540°27km/h4467m8.1m/s-13.0°C0%0hPa0V00:00:0000:00:0000:00:00
WB7NNF2026-09-03 17:26:1947.73442-117.5828318°64km/h4337m6.0m/s-12.0°C0%0hPa0V00:00:0000:00:0000:00:00
WB7NNF2026-09-03 17:25:5847.73212-117.5841851km/h4227m4.8m/s-11.5°C0%0hPa0V00:00:0000:00:0000:00:00
WB7NNF2026-09-03 17:25:3847.73004-117.5859833°68km/h4094m7.1m/s-10.8°C0%0hPa0V00:00:0000:00:0000:00:00
WB7NNF2026-09-03 17:24:4147.72536-117.58919338°15km/h3781m4.5m/s-8.7°C0%0hPa0V00:00:0000:00:0000:00:00
WB7NNF2026-09-03 17:24:1447.72309-117.5904825°60km/h3613m6.4m/s0°C0%0hPa0V00:00:0000:00:0000:00:00


GPX KML Map

© wettersonde.net (DO2JMG) - 2026  -  -